Location: Leiter
(44.7178°N, 106.2687°W)
Time: 14:32:33
(UTC+00:00)

STARS - Pass Details

Date: 04 July 2022
Orbit: 620 x 637 km, 98.2° (Epoch: 18 August)

Event Time Altitude Azimuth Distance (km) Brightness Sun altitude
Rises 05:45:54 0° 14° (NNE) 2,931 ? -19.8°
Reaches altitude 10° 05:48:07 10° 16° (NNE) 2,016 ? -19.9°
Maximum altitude 05:52:30 78° 102° (ESE) 646 ? -20.2°
Enters shadow 05:53:34 51° 178° (S) 793 ? -20.2°
